ANA41 RJTT-RJOO

Flight info

Callsign ANA41
Flight time N/A
Altitude 30000
Route LAXAS Y56 TOHME Y54 KOHWA Y546 AGPUK MIRAI ABENO IKOMA
Aircraft B77W/H-SDE1E2E3FGHIJ2J3J4J5M1RWXY/LB1D1

Departure

Time 2026-04-30 03:24
Airport Tokyo Haneda International Airport (RJTT)

Arrival

Time N/A
Airport Osaka Itami International Airport (RJOO)
Time Latitude Longitude Altitude Speed Heading
2026-04-30 02:48 35.54982 139.79294 20 ft 0 kts 160°
2026-04-30 03:12 35.54993 139.79289 19 ft 3 kts 160°
2026-04-30 03:12 35.55015 139.79274 19 ft 4 kts 137°
2026-04-30 03:12 35.55023 139.79259 19 ft 1 kts 97°
2026-04-30 03:12 35.55023 139.79234 20 ft 3 kts 93°
2026-04-30 03:13 35.55027 139.79205 21 ft 3 kts 101°
2026-04-30 03:13 35.55028 139.79182 22 ft 0 kts 88°
2026-04-30 03:13 35.55028 139.79189 22 ft 1 kts 87°
2026-04-30 03:13 35.55028 139.79190 22 ft 0 kts 86°
2026-04-30 03:16 35.55049 139.79250 19 ft 12 kts 59°
2026-04-30 03:17 35.55097 139.79347 16 ft 14 kts 59°
2026-04-30 03:17 35.55114 139.79446 15 ft 12 kts 141°
2026-04-30 03:17 35.55040 139.79498 15 ft 12 kts 150°
2026-04-30 03:17 35.55007 139.79523 15 ft 11 kts 149°
2026-04-30 03:18 35.54937 139.79575 15 ft 11 kts 149°
2026-04-30 03:18 35.54835 139.79648 15 ft 22 kts 150°
2026-04-30 03:18 35.54701 139.79739 15 ft 21 kts 151°
2026-04-30 03:18 35.54574 139.79829 15 ft 20 kts 150°
2026-04-30 03:19 35.54455 139.79915 15 ft 21 kts 149°
2026-04-30 03:19 35.54309 139.80020 15 ft 27 kts 150°
2026-04-30 03:19 35.54141 139.80136 15 ft 26 kts 150°
2026-04-30 03:19 35.53981 139.80249 15 ft 25 kts 149°
2026-04-30 03:20 35.53869 139.80260 15 ft 17 kts 236°
2026-04-30 03:20 35.53785 139.80174 15 ft 15 kts 181°
2026-04-30 03:20 35.53677 139.80191 15 ft 15 kts 172°
2026-04-30 03:20 35.53577 139.80244 15 ft 17 kts 150°
2026-04-30 03:21 35.53468 139.80322 15 ft 19 kts 150°
2026-04-30 03:21 35.53337 139.80414 15 ft 23 kts 150°
2026-04-30 03:21 35.53183 139.80524 15 ft 27 kts 150°
2026-04-30 03:21 35.53016 139.80641 15 ft 26 kts 154°
2026-04-30 03:22 35.52862 139.80566 15 ft 25 kts 222°
2026-04-30 03:22 35.52738 139.80425 15 ft 23 kts 223°
2026-04-30 03:22 35.52619 139.80290 15 ft 22 kts 222°
2026-04-30 03:22 35.52529 139.80219 15 ft 12 kts 179°
2026-04-30 03:23 35.52467 139.80281 15 ft 11 kts 132°
2026-04-30 03:23 35.52422 139.80353 15 ft 4 kts 96°
2026-04-30 03:23 35.52436 139.80392 15 ft 2 kts 42°
2026-04-30 03:23 35.52619 139.80594 15 ft 79 kts 42°
2026-04-30 03:24 35.53245 139.81297 40 ft 159 kts 42°
2026-04-30 03:24 35.54102 139.82254 874 ft 170 kts 42°
2026-04-30 03:24 35.54986 139.83258 1636 ft 182 kts 45°
2026-04-30 03:24 35.55917 139.84374 2339 ft 196 kts 41°
2026-04-30 03:25 35.56943 139.85550 3058 ft 211 kts 54°
2026-04-30 03:25 35.57515 139.87233 3897 ft 223 kts 84°
2026-04-30 03:25 35.57307 139.89122 4728 ft 238 kts 112°
2026-04-30 03:25 35.56417 139.90874 5611 ft 252 kts 123°
2026-04-30 03:26 35.55461 139.92715 6624 ft 259 kts 121°
2026-04-30 03:26 35.54317 139.94432 7537 ft 270 kts 140°
2026-04-30 03:26 35.52624 139.95424 8373 ft 282 kts 168°
2026-04-30 03:26 35.50642 139.95393 9178 ft 294 kts 194°
2026-04-30 03:27 35.48715 139.94630 10206 ft 295 kts 198°
2026-04-30 03:27 35.46764 139.93741 10956 ft 307 kts 208°
2026-04-30 03:27 35.44983 139.92212 11622 ft 322 kts 221°
2026-04-30 03:27 35.43290 139.90320 12346 ft 335 kts 225°
2026-04-30 03:28 35.41624 139.88284 13146 ft 345 kts 227°
2026-04-30 03:28 35.39970 139.86148 14102 ft 349 kts 228°
2026-04-30 03:28 35.38315 139.83969 15050 ft 353 kts 229°
2026-04-30 03:28 35.36659 139.81769 15970 ft 356 kts 229°
2026-04-30 03:29 35.34989 139.79565 16849 ft 359 kts 229°
2026-04-30 03:29 35.33282 139.77307 17744 ft 362 kts 229°
2026-04-30 03:29 35.31587 139.75084 18688 ft 361 kts 227°
2026-04-30 03:29 35.29728 139.73033 19599 ft 361 kts 224°
2026-04-30 03:30 35.27834 139.71046 20430 ft 362 kts 225°
2026-04-30 03:30 35.25941 139.69069 21221 ft 363 kts 225°
2026-04-30 03:30 35.24020 139.67062 21940 ft 365 kts 225°
2026-04-30 03:30 35.22077 139.65033 22631 ft 368 kts 225°
2026-04-30 03:31 35.20147 139.63020 23300 ft 370 kts 225°
2026-04-30 03:31 35.18180 139.60969 23986 ft 372 kts 225°
2026-04-30 03:31 35.16220 139.58928 24657 ft 375 kts 225°
2026-04-30 03:31 35.14233 139.56860 25331 ft 378 kts 226°
2026-04-30 03:32 35.12235 139.54782 26003 ft 381 kts 226°
2026-04-30 03:32 35.10307 139.52556 26696 ft 379 kts 232°
2026-04-30 03:32 35.08691 139.50034 27376 ft 378 kts 240°
2026-04-30 03:32 35.07410 139.47240 28075 ft 378 kts 248°
2026-04-30 03:33 35.06494 139.44252 28807 ft 379 kts 255°
2026-04-30 03:33 35.05915 139.41153 29527 ft 381 kts 259°
2026-04-30 03:33 35.05399 139.37972 30162 ft 382 kts 259°
2026-04-30 03:33 35.04884 139.34810 30338 ft 379 kts 258°
2026-04-30 03:34 35.03864 139.28624 30313 ft 365 kts 259°
2026-04-30 03:34 35.02862 139.22601 30291 ft 366 kts 259°
2026-04-30 03:35 35.01844 139.16528 30218 ft 363 kts 259°
2026-04-30 03:35 35.00828 139.10500 30200 ft 367 kts 258°
2026-04-30 03:36 34.99798 139.04408 30221 ft 368 kts 258°
2026-04-30 03:36 34.98818 138.98322 30224 ft 367 kts 262°
2026-04-30 03:37 34.98451 138.92110 30222 ft 368 kts 265°
2026-04-30 03:37 34.98133 138.85892 30213 ft 368 kts 265°
2026-04-30 03:38 34.97809 138.79683 30202 ft 369 kts 265°
2026-04-30 03:38 34.97479 138.73460 30194 ft 369 kts 265°
2026-04-30 03:39 34.97147 138.67259 30187 ft 369 kts 265°
2026-04-30 03:39 34.96810 138.61026 30186 ft 369 kts 265°
2026-04-30 03:40 34.96468 138.54770 30188 ft 369 kts 265°
2026-04-30 03:40 34.96124 138.48524 30196 ft 370 kts 265°
2026-04-30 03:41 34.95776 138.42284 30204 ft 370 kts 265°
2026-04-30 03:41 34.95426 138.36049 30203 ft 370 kts 265°
2026-04-30 03:42 34.95072 138.29793 30219 ft 370 kts 264°
2026-04-30 03:42 34.94715 138.23538 30215 ft 371 kts 264°
2026-04-30 03:43 34.94356 138.17322 30209 ft 371 kts 264°
2026-04-30 03:43 34.93990 138.11031 30211 ft 371 kts 264°
2026-04-30 03:44 34.93624 138.04799 30215 ft 371 kts 264°
2026-04-30 03:44 34.93251 137.98512 30212 ft 372 kts 264°
2026-04-30 03:45 34.92875 137.92230 30206 ft 372 kts 264°
2026-04-30 03:45 34.92498 137.85971 30206 ft 374 kts 264°
2026-04-30 03:46 34.92115 137.79657 30208 ft 375 kts 264°
2026-04-30 03:46 34.91862 137.75523 30205 ft 374 kts 264°